Time,TemperatureF,DewpointF,PressureIn,WindDirection,WindDirectionDegrees,WindSpeedMPH,WindSpeedGustMPH,Humidity,HourlyPrecipIn,Conditions,Clouds,dailyrainin,SolarRadiationWatts/m^2,SoftwareType,DateUTC
2013-01-04 00:18:00,33.4,18.6,30.22,North,357,6.0,7.0,54,0.00,,CLR,0.00,0.00,VWS V14.01,2013-01-04 05:18:00,
2013-01-04 00:24:00,33.4,19.4,30.22,NNW,329,3.0,12.0,56,0.00,,CLR,0.00,0.00,VWS V14.01,2013-01-04 05:24:00,
2013-01-04 00:29:00,33.3,18.5,30.22,North,7,1.0,7.0,54,0.00,,CLR,0.00,0.00,VWS V14.01,2013-01-04 05:29:00,
2013-01-04 00:34:00,33.1,19.1,30.22,NNE,27,1.0,7.0,56,0.00,,CLR,0.00,0.00,VWS V14.01,2013-01-04 05:34:00,
2013-01-04 00:39:00,33.0,19.4,30.22,West,265,5.0,6.0,57,0.00,,CLR,0.00,0.00,VWS V14.01,2013-01-04 05:39:00,
2013-01-04 00:44:00,32.8,18.8,30.22,North,0,2.0,7.0,56,0.00,,CLR,0.00,0.00,VWS V14.01,2013-01-04 05:44:00,
2013-01-04 00:49:00,32.8,18.8,30.21,North,349,6.0,11.0,56,0.00,,CLR,0.00,0.00,VWS V14.01,2013-01-04 05:49:00,
2013-01-04 00:54:00,32.7,19.2,30.21,NNW,342,8.0,13.0,57,0.00,,CLR,0.00,0.00,VWS V14.01,2013-01-04 05:54:00,
2013-01-04 00:59:00,32.5,19.4,30.21,North,357,10.0,16.0,58,0.00,,CLR,0.00,0.00,VWS V14.01,2013-01-04 05:59:00,
2013-01-04 01:04:00,32.4,18.5,30.20,North,11,8.0,21.0,56,0.00,,CLR,0.00,0.00,VWS V14.01,2013-01-04 06:04:00,
2013-01-04 01:09:00,32.2,18.7,30.20,North,6,7.0,14.0,57,0.00,,CLR,0.00,0.00,VWS V14.01,2013-01-04 06:09:00,
2013-01-04 01:15:00,32.2,18.7,30.20,North,0,7.0,14.0,57,0.00,,CLR,0.00,0.00,VWS V14.01,2013-01-04 06:15:00,
2013-01-04 01:20:00,32.2,18.7,30.21,North,0,6.0,17.0,57,0.00,,CLR,0.00,0.00,VWS V14.01,2013-01-04 06:20:00,
2013-01-04 01:25:00,32.4,18.5,30.21,North,352,6.0,17.0,56,0.00,,CLR,0.00,0.00,VWS V14.01,2013-01-04 06:25:00,
2013-01-04 01:30:00,32.2,18.3,30.21,North,357,10.0,14.0,56,0.00,,CLR,0.00,0.00,VWS V14.01,2013-01-04 06:30:00,
2013-01-04 01:35:00,32.4,18.0,30.21,NW,326,18.0,22.0,55,0.00,,CLR,0.00,0.00,VWS V14.01,2013-01-04 06:35:00,
2013-01-04 01:40:00,32.4,18.0,30.21,North,0,3.0,22.0,55,0.00,,CLR,0.00,0.00,VWS V14.01,2013-01-04 06:40:00,
2013-01-04 01:45:00,32.1,18.6,30.21,NW,323,5.0,11.0,57,0.00,,CLR,0.00,0.00,VWS V14.01,2013-01-04 06:45:00,
2013-01-04 01:50:00,31.9,18.4,30.22,North,349,5.0,11.0,57,0.00,,CLR,0.00,0.00,VWS V14.01,2013-01-04 06:50:00,
2013-01-04 01:56:00,31.9,18.8,30.22,NNW,346,8.0,10.0,58,0.00,,CLR,0.00,0.00,VWS V14.01,2013-01-04 06:56:00,
2013-01-04 02:01:00,31.9,18.4,30.22,NNW,330,5.0,13.0,57,0.00,,CLR,0.00,0.00,VWS V14.01,2013-01-04 07:01:00,
2013-01-04 02:06:00,31.9,18.0,30.22,North,0,6.0,8.0,56,0.00,,CLR,0.00,0.00,VWS V14.01,2013-01-04 07:06:00,
2013-01-04 02:11:00,31.9,18.8,30.22,NNW,342,6.0,9.0,58,0.00,,CLR,0.00,0.00,VWS V14.01,2013-01-04 07:11:00,
2013-01-04 02:16:00,31.8,18.3,30.22,North,0,5.0,11.0,57,0.00,,CLR,0.00,0.00,VWS V14.01,2013-01-04 07:16:00,
2013-01-04 02:21:00,31.9,18.4,30.23,North,0,4.0,12.0,57,0.00,,CLR,0.00,0.00,VWS V14.01,2013-01-04 07:21:00,
2013-01-04 02:26:00,31.7,18.6,30.23,North,0,6.0,13.0,58,0.00,,CLR,0.00,0.00,VWS V14.01,2013-01-04 07:26:00,
2013-01-04 02:31:00,31.7,18.6,30.23,North,0,7.0,17.0,58,0.00,,CLR,0.00,0.00,VWS V14.01,2013-01-04 07:31:00,
2013-01-04 02:36:00,31.4,18.4,30.23,NNW,346,10.0,12.0,58,0.00,,CLR,0.00,0.00,VWS V14.01,2013-01-04 07:36:00,
2013-01-04 02:42:00,31.4,18.4,30.23,North,0,9.0,13.0,58,0.00,,CLR,0.00,0.00,VWS V14.01,2013-01-04 07:42:00,
2013-01-04 02:47:00,31.2,18.2,30.23,NNW,329,11.0,11.0,58,0.00,,CLR,0.00,0.00,VWS V14.01,2013-01-04 07:47:00,
2013-01-04 02:52:00,31.2,18.2,30.24,North,0,6.0,13.0,58,0.00,,CLR,0.00,0.00,VWS V14.01,2013-01-04 07:52:00,
2013-01-04 02:57:00,31.1,18.5,30.24,North,0,7.0,11.0,59,0.00,,CLR,0.00,0.00,VWS V14.01,2013-01-04 07:57:00,
2013-01-04 03:02:00,30.9,18.3,30.24,NNE,13,3.0,11.0,59,0.00,,CLR,0.00,0.00,VWS V14.01,2013-01-04 08:02:00,
2013-01-04 03:07:00,30.8,18.2,30.24,North,0,3.0,12.0,59,0.00,,CLR,0.00,0.00,VWS V14.01,2013-01-04 08:07:00,
2013-01-04 03:12:00,30.8,18.6,30.24,North,1,1.0,12.0,60,0.00,,CLR,0.00,0.00,VWS V14.01,2013-01-04 08:12:00,
2013-01-04 03:17:00,30.6,18.4,30.24,NNW,346,2.0,7.0,60,0.00,,CLR,0.00,0.00,VWS V14.01,2013-01-04 08:17:00,
2013-01-04 03:22:00,30.5,18.3,30.24,NNW,347,5.0,11.0,60,0.00,,CLR,0.00,0.00,VWS V14.01,2013-01-04 08:22:00,
2013-01-04 03:28:00,30.6,18.0,30.24,North,356,5.0,8.0,59,0.00,,CLR,0.00,0.00,VWS V14.01,2013-01-04 08:28:00,
2013-01-04 03:33:00,30.5,18.7,30.24,NNW,340,3.0,11.0,61,0.00,,CLR,0.00,0.00,VWS V14.01,2013-01-04 08:33:00,
2013-01-04 03:38:00,30.5,18.3,30.24,North,0,3.0,8.0,60,0.00,,CLR,0.00,0.00,VWS V14.01,2013-01-04 08:38:00,
2013-01-04 03:43:00,30.5,18.7,30.24,North,0,2.0,8.0,61,0.00,,CLR,0.00,0.00,VWS V14.01,2013-01-04 08:43:00,
2013-01-04 03:48:00,30.3,18.5,30.24,North,0,6.0,10.0,61,0.00,,CLR,0.00,0.00,VWS V14.01,2013-01-04 08:48:00,
2013-01-04 03:53:00,30.5,18.3,30.24,North,354,5.0,10.0,60,0.00,,CLR,0.00,0.00,VWS V14.01,2013-01-04 08:53:00,
2013-01-04 03:58:00,30.5,18.7,30.24,WNW,288,10.0,13.0,61,0.00,,CLR,0.00,0.00,VWS V14.01,2013-01-04 08:58:00,
2013-01-04 04:03:00,30.8,18.2,30.24,NNW,347,6.0,14.0,59,0.00,,CLR,0.00,0.00,VWS V14.01,2013-01-04 09:03:00,
2013-01-04 04:09:00,30.8,18.6,30.24,North,349,3.0,11.0,60,0.00,,CLR,0.00,0.00,VWS V14.01,2013-01-04 09:09:00,
2013-01-04 04:14:00,30.8,18.2,30.24,North,352,2.0,11.0,59,0.00,,CLR,0.00,0.00,VWS V14.01,2013-01-04 09:14:00,
2013-01-04 04:19:00,30.6,18.4,30.24,NNW,336,2.0,8.0,60,0.00,,CLR,0.00,0.00,VWS V14.01,2013-01-04 09:19:00,
2013-01-04 04:24:00,30.6,18.4,30.24,NW,322,11.0,11.0,60,0.00,,CLR,0.00,0.00,VWS V14.01,2013-01-04 09:24:00,
2013-01-04 04:29:00,30.6,18.0,30.24,North,0,5.0,10.0,59,0.00,,CLR,0.00,0.00,VWS V14.01,2013-01-04 09:29:00,
2013-01-04 04:34:00,30.5,18.3,30.23,North,0,3.0,12.0,60,0.00,,CLR,0.00,0.00,VWS V14.01,2013-01-04 09:34:00,
2013-01-04 04:39:00,30.5,18.3,30.23,NNW,333,4.0,12.0,60,0.00,,CLR,0.00,0.00,VWS V14.01,2013-01-04 09:39:00,
2013-01-04 04:44:00,30.5,18.3,30.23,NNW,344,6.0,13.0,60,0.00,,CLR,0.00,0.00,VWS V14.01,2013-01-04 09:44:00,
2013-01-04 04:49:00,30.5,17.9,30.23,North,0,4.0,12.0,59,0.00,,CLR,0.00,0.00,VWS V14.01,2013-01-04 09:49:00,
2013-01-04 04:55:00,30.3,17.7,30.23,NW,326,6.0,12.0,59,0.00,,CLR,0.00,0.00,VWS V14.01,2013-01-04 09:55:00,
2013-01-04 05:00:00,30.3,18.1,30.23,North,0,6.0,8.0,60,0.00,,CLR,0.00,0.00,VWS V14.01,2013-01-04 10:00:00,
2013-01-04 05:05:00,30.2,18.0,30.23,NNW,329,8.0,11.0,60,0.00,,CLR,0.00,0.00,VWS V14.01,2013-01-04 10:05:00,
2013-01-04 05:10:00,30.0,17.8,30.23,North,0,4.0,9.0,60,0.00,,CLR,0.00,0.00,VWS V14.01,2013-01-04 10:10:00,
2013-01-04 05:15:00,29.9,17.7,30.23,NNW,342,7.0,11.0,60,0.00,,CLR,0.00,0.00,VWS V14.01,2013-01-04 10:15:00,
2013-01-04 05:20:00,30.0,17.4,30.23,NNW,340,1.0,11.0,59,0.00,,CLR,0.00,0.00,VWS V14.01,2013-01-04 10:20:00,
2013-01-04 05:25:00,30.0,17.4,30.23,NNW,344,6.0,7.0,59,0.00,,CLR,0.00,0.00,VWS V14.01,2013-01-04 10:25:00,
2013-01-04 05:30:00,30.2,17.6,30.23,NNW,329,7.0,12.0,59,0.00,,CLR,0.00,0.00,VWS V14.01,2013-01-04 10:30:00,
2013-01-04 05:35:00,30.0,17.4,30.23,NNW,337,5.0,7.0,59,0.00,,CLR,0.00,0.00,VWS V14.01,2013-01-04 10:35:00,
2013-01-04 05:40:00,29.9,17.7,30.23,NNW,336,7.0,7.0,60,0.00,,CLR,0.00,0.00,VWS V14.01,2013-01-04 10:40:00,
2013-01-04 05:46:00,29.9,18.1,30.23,NW,326,7.0,8.0,61,0.00,,CLR,0.00,0.00,VWS V14.01,2013-01-04 10:46:00,
2013-01-04 05:51:00,29.7,17.9,30.23,North,349,6.0,8.0,61,0.00,,CLR,0.00,0.00,VWS V14.01,2013-01-04 10:51:00,
2013-01-04 05:56:00,29.7,17.5,30.23,North,350,2.0,5.0,60,0.00,,CLR,0.00,0.00,VWS V14.01,2013-01-04 10:56:00,
2013-01-04 06:01:00,29.7,17.5,30.23,NNW,336,2.0,6.0,60,0.00,,CLR,0.00,0.00,VWS V14.01,2013-01-04 11:01:00,
2013-01-04 06:06:00,29.7,17.9,30.23,North,0,2.0,8.0,61,0.00,,CLR,0.00,0.00,VWS V14.01,2013-01-04 11:06:00,
2013-01-04 06:11:00,29.7,17.9,30.23,NW,318,4.0,8.0,61,0.00,,CLR,0.00,0.00,VWS V14.01,2013-01-04 11:11:00,
2013-01-04 06:16:00,29.6,17.8,30.23,NNW,337,1.0,5.0,61,0.00,,CLR,0.00,0.00,VWS V14.01,2013-01-04 11:16:00,
2013-01-04 06:21:00,29.6,18.2,30.23,NW,322,3.0,10.0,62,0.00,,CLR,0.00,0.00,VWS V14.01,2013-01-04 11:21:00,
2013-01-04 06:26:00,29.6,17.8,30.23,NNW,339,8.0,8.0,61,0.00,,CLR,0.00,0.00,VWS V14.01,2013-01-04 11:26:00,
2013-01-04 06:32:00,29.7,17.5,30.23,NNW,328,0.0,11.0,60,0.00,,CLR,0.00,0.00,VWS V14.01,2013-01-04 11:32:00,
2013-01-04 06:37:00,29.7,17.9,30.23,NNW,328,0.0,0.0,61,0.00,,CLR,0.00,0.00,VWS V14.01,2013-01-04 11:37:00,
2013-01-04 06:42:00,29.4,18.0,30.23,NNW,328,2.0,2.0,62,0.00,,CLR,0.00,0.00,VWS V14.01,2013-01-04 11:42:00,
2013-01-04 06:47:00,29.6,17.8,30.23,WNW,302,5.0,7.0,61,0.00,,CLR,0.00,0.00,VWS V14.01,2013-01-04 11:47:00,
2013-01-04 06:52:00,30.0,17.8,30.24,NNW,332,2.0,13.0,60,0.00,,CLR,0.00,0.00,VWS V14.01,2013-01-04 11:52:00,
2013-01-04 06:57:00,30.0,18.2,30.24,NW,323,5.0,6.0,61,0.00,,CLR,0.00,0.00,VWS V14.01,2013-01-04 11:57:00,
2013-01-04 07:02:00,30.2,18.0,30.24,NNW,343,1.0,6.0,60,0.00,,CLR,0.00,0.00,VWS V14.01,2013-01-04 12:02:00,
2013-01-04 07:07:00,30.0,18.2,30.23,NW,306,2.0,6.0,61,0.00,,CLR,0.00,0.00,VWS V14.01,2013-01-04 12:07:00,
2013-01-04 07:12:00,30.0,18.2,30.23,North,349,2.0,8.0,61,0.00,,CLR,0.00,0.00,VWS V14.01,2013-01-04 12:12:00,
2013-01-04 07:17:00,30.0,18.2,30.23,NW,323,2.0,3.0,61,0.00,,CLR,0.00,0.00,VWS V14.01,2013-01-04 12:17:00,
2013-01-04 07:22:00,30.0,18.2,30.23,WNW,292,3.0,6.0,61,0.00,,CLR,0.00,0.00,VWS V14.01,2013-01-04 12:22:00,
2013-01-04 07:28:00,30.2,18.4,30.23,NNW,344,2.0,6.0,61,0.00,,CLR,0.00,0.00,VWS V14.01,2013-01-04 12:28:00,
2013-01-04 07:33:00,30.3,18.1,30.23,NNW,337,3.0,10.0,60,0.00,,CLR,0.00,0.00,VWS V14.01,2013-01-04 12:33:00,
2013-01-04 07:38:00,30.5,18.7,30.23,NW,326,1.0,3.0,61,0.00,,CLR,0.00,5.00,VWS V14.01,2013-01-04 12:38:00,
2013-01-04 07:43:00,30.3,18.5,30.23,NNW,337,1.0,5.0,61,0.00,,CLR,0.00,7.00,VWS V14.01,2013-01-04 12:43:00,
2013-01-04 07:48:00,30.3,18.9,30.23,North,0,1.0,6.0,62,0.00,,CLR,0.00,9.00,VWS V14.01,2013-01-04 12:48:00,
2013-01-04 07:53:00,30.3,18.5,30.23,NNW,344,0.0,6.0,61,0.00,,CLR,0.00,11.00,VWS V14.01,2013-01-04 12:53:00,
2013-01-04 07:59:00,30.2,18.8,30.23,NNW,344,0.0,0.0,62,0.00,,CLR,0.00,12.00,VWS V14.01,2013-01-04 12:59:00,
2013-01-04 08:04:00,30.0,18.2,30.23,NW,313,3.0,6.0,61,0.00,,CLR,0.00,18.00,VWS V14.01,2013-01-04 13:04:00,
2013-01-04 08:09:00,29.9,18.5,30.23,NW,313,0.0,3.0,62,0.00,,CLR,0.00,21.00,VWS V14.01,2013-01-04 13:09:00,
2013-01-04 08:14:00,29.7,18.3,30.23,NW,313,0.0,3.0,62,0.00,,CLR,0.00,21.00,VWS V14.01,2013-01-04 13:14:00,
2013-01-04 08:19:00,29.7,18.3,30.22,NNW,335,0.0,1.0,62,0.00,,CLR,0.00,23.00,VWS V14.01,2013-01-04 13:19:00,
2013-01-04 08:24:00,29.6,18.2,30.22,NNW,339,0.0,2.0,62,0.00,,CLR,0.00,25.00,VWS V14.01,2013-01-04 13:24:00,
2013-01-04 08:29:00,29.4,18.4,30.22,NNW,340,1.0,2.0,63,0.00,,CLR,0.00,30.00,VWS V14.01,2013-01-04 13:29:00,
2013-01-04 08:34:00,29.3,18.3,30.22,WNW,294,0.0,2.0,63,0.00,,CLR,0.00,32.00,VWS V14.01,2013-01-04 13:34:00,
2013-01-04 08:40:00,29.3,18.3,30.22,SW,226,0.0,2.0,63,0.00,,CLR,0.00,37.00,VWS V14.01,2013-01-04 13:40:00,
2013-01-04 08:45:00,29.6,18.2,30.22,SSW,210,0.0,3.0,62,0.00,,CLR,0.00,37.00,VWS V14.01,2013-01-04 13:45:00,
2013-01-04 08:50:00,29.7,18.3,30.22,SSW,212,0.0,1.0,62,0.00,,CLR,0.00,44.00,VWS V14.01,2013-01-04 13:50:00,
2013-01-04 08:55:00,29.7,18.3,30.22,WSW,251,0.0,1.0,62,0.00,,CLR,0.00,44.00,VWS V14.01,2013-01-04 13:55:00,
2013-01-04 09:00:00,29.9,18.5,30.22,SW,226,0.0,2.0,62,0.00,,CLR,0.00,53.00,VWS V14.01,2013-01-04 14:00:00,
2013-01-04 09:05:00,30.0,18.6,30.23,SW,223,2.0,2.0,62,0.00,,CLR,0.00,70.00,VWS V14.01,2013-01-04 14:05:00,
2013-01-04 09:10:00,30.3,18.9,30.23,SW,223,0.0,3.0,62,0.00,,CLR,0.00,223.00,VWS V14.01,2013-01-04 14:10:00,
2013-01-04 09:15:00,30.8,18.6,30.23,SW,223,0.0,0.0,60,0.00,,CLR,0.00,158.00,VWS V14.01,2013-01-04 14:15:00,
2013-01-04 09:20:00,31.5,18.8,30.23,North,1,1.0,3.0,59,0.00,,CLR,0.00,266.00,VWS V14.01,2013-01-04 14:20:00,
2013-01-04 09:25:00,31.8,18.7,30.23,NNW,342,0.0,2.0,58,0.00,,CLR,0.00,292.00,VWS V14.01,2013-01-04 14:25:00,
2013-01-04 09:30:00,32.4,18.9,30.23,NNW,343,1.0,3.0,57,0.00,,CLR,0.00,296.00,VWS V14.01,2013-01-04 14:30:00,
2013-01-04 09:36:00,32.7,18.8,30.23,NW,325,3.0,7.0,56,0.00,,CLR,0.00,301.00,VWS V14.01,2013-01-04 14:36:00,
2013-01-04 09:41:00,33.0,18.6,30.23,NNW,347,3.0,10.0,55,0.00,,CLR,0.00,313.00,VWS V14.01,2013-01-04 14:41:00,
2013-01-04 09:46:00,33.1,18.7,30.23,NNW,330,2.0,7.0,55,0.00,,CLR,0.00,310.00,VWS V14.01,2013-01-04 14:46:00,
2013-01-04 09:51:00,33.3,18.9,30.24,North,350,7.0,8.0,55,0.00,,CLR,0.00,336.00,VWS V14.01,2013-01-04 14:51:00,
2013-01-04 09:56:00,33.6,19.2,30.24,NNW,339,3.0,4.0,55,0.00,,CLR,0.00,340.00,VWS V14.01,2013-01-04 14:56:00,
2013-01-04 10:01:00,33.6,19.2,30.24,NW,320,4.0,11.0,55,0.00,,CLR,0.00,340.00,VWS V14.01,2013-01-04 15:01:00,
2013-01-04 10:06:00,33.7,19.3,30.24,North,357,7.0,10.0,55,0.00,,CLR,0.00,366.00,VWS V14.01,2013-01-04 15:06:00,
2013-01-04 10:11:00,33.9,19.0,30.24,West,278,3.0,14.0,54,0.00,,CLR,0.00,362.00,VWS V14.01,2013-01-04 15:11:00,
2013-01-04 10:17:00,34.2,19.3,30.24,NNW,347,3.0,8.0,54,0.00,,CLR,0.00,368.00,VWS V14.01,2013-01-04 15:17:00,
2013-01-04 10:22:00,34.2,18.9,30.24,NNW,343,6.0,12.0,53,0.00,,CLR,0.00,382.00,VWS V14.01,2013-01-04 15:22:00,
2013-01-04 10:27:00,34.2,19.3,30.24,NNW,329,6.0,8.0,54,0.00,,CLR,0.00,373.00,VWS V14.01,2013-01-04 15:27:00,
2013-01-04 10:32:00,34.3,19.4,30.24,North,8,7.0,13.0,54,0.00,,CLR,0.00,391.00,VWS V14.01,2013-01-04 15:32:00,
2013-01-04 10:37:00,34.0,19.1,30.24,North,349,5.0,13.0,54,0.00,,CLR,0.00,398.00,VWS V14.01,2013-01-04 15:37:00,
2013-01-04 10:42:00,34.0,18.2,30.24,NW,319,11.0,15.0,52,0.00,,CLR,0.00,408.00,VWS V14.01,2013-01-04 15:42:00,
2013-01-04 10:47:00,34.3,19.4,30.24,NNW,332,7.0,11.0,54,0.00,,CLR,0.00,406.00,VWS V14.01,2013-01-04 15:47:00,
2013-01-04 10:52:00,34.6,19.2,30.24,NNE,14,7.0,11.0,53,0.00,,CLR,0.00,429.00,VWS V14.01,2013-01-04 15:52:00,
2013-01-04 10:57:00,34.8,19.0,30.24,NNW,335,3.0,10.0,52,0.00,,CLR,0.00,440.00,VWS V14.01,2013-01-04 15:57:00,
2013-01-04 11:03:00,35.0,18.7,30.24,NW,312,6.0,11.0,51,0.00,,CLR,0.00,421.00,VWS V14.01,2013-01-04 16:03:00,
2013-01-04 11:08:00,35.2,18.9,30.24,NW,325,11.0,12.0,51,0.00,,CLR,0.00,452.00,VWS V14.01,2013-01-04 16:08:00,
2013-01-04 11:13:00,35.5,19.2,30.24,North,354,6.0,12.0,51,0.00,,CLR,0.00,452.00,VWS V14.01,2013-01-04 16:13:00,
2013-01-04 11:18:00,35.6,18.8,30.24,North,0,6.0,14.0,50,0.00,,CLR,0.00,456.00,VWS V14.01,2013-01-04 16:18:00,
2013-01-04 11:23:00,35.6,19.3,30.22,NNW,346,4.0,14.0,51,0.00,,CLR,0.00,461.00,VWS V14.01,2013-01-04 16:23:00,
2013-01-04 11:28:00,35.6,18.8,30.22,NW,325,11.0,11.0,50,0.00,,CLR,0.00,468.00,VWS V14.01,2013-01-04 16:28:00,
2013-01-04 11:33:00,35.8,19.0,30.22,North,0,5.0,11.0,50,0.00,,CLR,0.00,487.00,VWS V14.01,2013-01-04 16:33:00,
2013-01-04 11:38:00,35.8,19.0,30.22,North,349,1.0,8.0,50,0.00,,CLR,0.00,473.00,VWS V14.01,2013-01-04 16:38:00,
2013-01-04 11:43:00,35.9,20.0,30.22,NNW,336,3.0,13.0,52,0.00,,CLR,0.00,482.00,VWS V14.01,2013-01-04 16:43:00,
2013-01-04 11:49:00,35.9,19.1,30.22,North,356,4.0,11.0,50,0.00,,CLR,0.00,484.00,VWS V14.01,2013-01-04 16:49:00,
2013-01-04 11:54:00,35.8,19.5,30.21,North,8,8.0,13.0,51,0.00,,CLR,0.00,484.00,VWS V14.01,2013-01-04 16:54:00,
2013-01-04 11:59:00,35.6,19.3,30.21,WNW,301,12.0,13.0,51,0.00,,CLR,0.00,494.00,VWS V14.01,2013-01-04 16:59:00,
2013-01-04 12:04:00,35.8,19.9,30.20,NNW,336,7.0,13.0,52,0.00,,CLR,0.00,503.00,VWS V14.01,2013-01-04 17:04:00,
2013-01-04 12:09:00,35.8,19.9,30.20,North,354,6.0,12.0,52,0.00,,CLR,0.00,494.00,VWS V14.01,2013-01-04 17:09:00,
2013-01-04 12:14:00,36.0,20.1,30.20,NNE,18,5.0,12.0,52,0.00,,CLR,0.00,494.00,VWS V14.01,2013-01-04 17:14:00,
2013-01-04 12:19:00,36.0,19.2,30.20,North,350,7.0,15.0,50,0.00,,CLR,0.00,500.00,VWS V14.01,2013-01-04 17:19:00,
2013-01-04 12:25:00,36.0,19.2,30.20,North,0,9.0,15.0,50,0.00,,CLR,0.00,498.00,VWS V14.01,2013-01-04 17:25:00,
2013-01-04 12:30:00,36.0,18.7,30.20,North,356,5.0,16.0,49,0.00,,CLR,0.00,494.00,VWS V14.01,2013-01-04 17:30:00,
2013-01-04 12:35:00,36.0,19.2,30.19,NNW,344,7.0,16.0,50,0.00,,CLR,0.00,491.00,VWS V14.01,2013-01-04 17:35:00,
2013-01-04 12:40:00,36.0,19.2,30.19,WNW,301,9.0,14.0,50,0.00,,CLR,0.00,498.00,VWS V14.01,2013-01-04 17:40:00,
2013-01-04 12:45:00,36.2,19.4,30.19,North,353,5.0,15.0,50,0.00,,CLR,0.00,500.00,VWS V14.01,2013-01-04 17:45:00,
2013-01-04 12:50:00,36.0,19.2,30.19,NW,320,12.0,19.0,50,0.00,,CLR,0.00,454.00,VWS V14.01,2013-01-04 17:50:00,
2013-01-04 12:55:00,35.8,19.0,30.19,NNW,342,11.0,11.0,50,0.00,,CLR,0.00,454.00,VWS V14.01,2013-01-04 17:55:00,
2013-01-04 13:00:00,36.0,19.2,30.19,WNW,282,10.0,21.0,50,0.00,,CLR,0.00,494.00,VWS V14.01,2013-01-04 18:00:00,
2013-01-04 13:05:00,36.2,18.9,30.19,North,8,7.0,13.0,49,0.00,,CLR,0.00,480.00,VWS V14.01,2013-01-04 18:05:00,
2013-01-04 13:10:00,36.2,19.4,30.19,North,359,7.0,16.0,50,0.00,,CLR,0.00,479.00,VWS V14.01,2013-01-04 18:10:00,
2013-01-04 13:16:00,36.0,19.2,30.19,NW,315,8.0,10.0,50,0.00,,CLR,0.00,480.00,VWS V14.01,2013-01-04 18:16:00,
2013-01-04 13:21:00,36.0,19.6,30.20,NW,325,13.0,17.0,51,0.00,,CLR,0.00,473.00,VWS V14.01,2013-01-04 18:21:00,
2013-01-04 13:26:00,35.9,20.0,30.20,North,356,7.0,8.0,52,0.00,,CLR,0.00,473.00,VWS V14.01,2013-01-04 18:26:00,
2013-01-04 13:31:00,36.2,20.3,30.20,NNW,346,8.0,14.0,52,0.00,,CLR,0.00,456.00,VWS V14.01,2013-01-04 18:31:00,
2013-01-04 13:36:00,36.3,19.9,30.19,North,0,7.0,11.0,51,0.00,,CLR,0.00,454.00,VWS V14.01,2013-01-04 18:36:00,
2013-01-04 13:41:00,36.3,19.5,30.19,NW,319,11.0,12.0,50,0.00,,CLR,0.00,449.00,VWS V14.01,2013-01-04 18:41:00,
2013-01-04 13:46:00,36.3,19.9,30.19,NNW,336,3.0,11.0,51,0.00,,CLR,0.00,433.00,VWS V14.01,2013-01-04 18:46:00,
2013-01-04 13:51:00,36.8,19.9,30.18,WNW,282,10.0,13.0,50,0.00,,CLR,0.00,431.00,VWS V14.01,2013-01-04 18:51:00,
2013-01-04 13:56:00,36.9,20.0,30.18,NNW,328,11.0,13.0,50,0.00,,CLR,0.00,419.00,VWS V14.01,2013-01-04 18:56:00,
2013-01-04 14:02:00,37.0,20.1,30.18,NW,325,3.0,13.0,50,0.00,,CLR,0.00,412.00,VWS V14.01,2013-01-04 19:02:00,
2013-01-04 14:07:00,37.2,19.3,30.18,NNW,340,4.0,8.0,48,0.00,,CLR,0.00,403.00,VWS V14.01,2013-01-04 19:07:00,
2013-01-04 14:12:00,37.5,19.6,30.18,WNW,296,9.0,11.0,48,0.00,,CLR,0.00,392.00,VWS V14.01,2013-01-04 19:12:00,
2013-01-04 14:17:00,37.6,20.2,30.18,WNW,287,5.0,10.0,49,0.00,,CLR,0.00,384.00,VWS V14.01,2013-01-04 19:17:00,
2013-01-04 14:22:00,37.5,19.1,30.18,NW,320,10.0,13.0,47,0.00,,CLR,0.00,375.00,VWS V14.01,2013-01-04 19:22:00,
2013-01-04 14:27:00,37.2,19.3,30.18,North,350,4.0,10.0,48,0.00,,CLR,0.00,364.00,VWS V14.01,2013-01-04 19:27:00,
2013-01-04 14:32:00,37.2,19.3,30.18,NW,312,6.0,13.0,48,0.00,,CLR,0.00,355.00,VWS V14.01,2013-01-04 19:32:00,
2013-01-04 14:37:00,37.2,18.8,30.18,WNW,301,5.0,7.0,47,0.00,,CLR,0.00,336.00,VWS V14.01,2013-01-04 19:37:00,
2013-01-04 14:43:00,37.5,18.6,30.18,SW,217,5.0,11.0,46,0.00,,CLR,0.00,327.00,VWS V14.01,2013-01-04 19:43:00,
2013-01-04 14:48:00,37.6,18.7,30.18,North,0,2.0,11.0,46,0.00,,CLR,0.00,317.00,VWS V14.01,2013-01-04 19:48:00,
2013-01-04 14:53:00,37.8,19.4,30.18,WNW,282,6.0,11.0,47,0.00,,CLR,0.00,310.00,VWS V14.01,2013-01-04 19:53:00,
2013-01-04 14:58:00,37.8,19.4,30.18,WNW,296,3.0,8.0,47,0.00,,CLR,0.00,294.00,VWS V14.01,2013-01-04 19:58:00,
2013-01-04 15:03:00,37.9,19.5,30.18,WNW,301,3.0,8.0,47,0.00,,CLR,0.00,274.00,VWS V14.01,2013-01-04 20:03:00,
2013-01-04 15:08:00,37.6,18.7,30.19,WNW,291,9.0,9.0,46,0.00,,CLR,0.00,63.00,VWS V14.01,2013-01-04 20:08:00,
2013-01-04 15:13:00,36.9,18.1,30.19,WNW,301,2.0,10.0,46,0.00,,CLR,0.00,128.00,VWS V14.01,2013-01-04 20:13:00,
2013-01-04 15:18:00,36.6,18.8,30.19,NNW,347,3.0,6.0,48,0.00,,CLR,0.00,58.00,VWS V14.01,2013-01-04 20:18:00,
2013-01-04 15:24:00,36.3,18.5,30.19,WNW,294,3.0,6.0,48,0.00,,CLR,0.00,79.00,VWS V14.01,2013-01-04 20:24:00,
2013-01-04 15:29:00,36.0,18.2,30.19,NNW,333,3.0,7.0,48,0.00,,CLR,0.00,69.00,VWS V14.01,2013-01-04 20:29:00,
2013-01-04 15:34:00,35.6,17.4,30.19,NNW,335,7.0,11.0,47,0.00,,CLR,0.00,65.00,VWS V14.01,2013-01-04 20:34:00,
2013-01-04 15:39:00,35.5,18.2,30.19,NW,313,3.0,6.0,49,0.00,,CLR,0.00,67.00,VWS V14.01,2013-01-04 20:39:00,
2013-01-04 15:44:00,35.2,18.4,30.19,NW,306,7.0,8.0,50,0.00,,CLR,0.00,72.00,VWS V14.01,2013-01-04 20:44:00,
2013-01-04 15:49:00,35.2,18.4,30.20,NW,313,5.0,10.0,50,0.00,,CLR,0.00,55.00,VWS V14.01,2013-01-04 20:49:00,
2013-01-04 15:54:00,35.3,18.5,30.20,NNW,346,5.0,10.0,50,0.00,,CLR,0.00,88.00,VWS V14.01,2013-01-04 20:54:00,
2013-01-04 15:59:00,35.3,19.9,30.20,North,357,3.0,8.0,53,0.00,,CLR,0.00,125.00,VWS V14.01,2013-01-04 20:59:00,
2013-01-04 16:04:00,35.3,19.9,30.20,NW,322,6.0,8.0,53,0.00,,CLR,0.00,102.00,VWS V14.01,2013-01-04 21:04:00,
2013-01-04 16:10:00,35.2,18.9,30.20,NW,313,6.0,8.0,51,0.00,,CLR,0.00,86.00,VWS V14.01,2013-01-04 21:10:00,
2013-01-04 16:15:00,35.2,19.4,30.20,North,4,2.0,11.0,52,0.00,,CLR,0.00,84.00,VWS V14.01,2013-01-04 21:15:00,
2013-01-04 16:20:00,35.0,19.2,30.20,NW,313,5.0,8.0,52,0.00,,CLR,0.00,83.00,VWS V14.01,2013-01-04 21:20:00,
2013-01-04 16:25:00,34.9,19.1,30.20,NW,313,6.0,6.0,52,0.00,,CLR,0.00,58.00,VWS V14.01,2013-01-04 21:25:00,
2013-01-04 16:30:00,34.8,19.4,30.20,WNW,282,7.0,8.0,53,0.00,,CLR,0.00,44.00,VWS V14.01,2013-01-04 21:30:00,
2013-01-04 16:35:00,34.3,19.0,30.20,NW,313,0.0,1.0,53,0.00,,CLR,0.00,26.00,VWS V14.01,2013-01-04 21:35:00,
2013-01-04 16:40:00,34.0,18.7,30.20,WNW,298,5.0,8.0,53,0.00,,CLR,0.00,21.00,VWS V14.01,2013-01-04 21:40:00,
2013-01-04 16:45:00,33.7,18.8,30.20,West,275,2.0,5.0,54,0.00,,CLR,0.00,19.00,VWS V14.01,2013-01-04 21:45:00,
2013-01-04 16:51:00,33.4,18.6,30.20,NW,322,5.0,7.0,54,0.00,,CLR,0.00,16.00,VWS V14.01,2013-01-04 21:51:00,
2013-01-04 16:56:00,33.3,18.5,30.20,NW,322,5.0,7.0,54,0.00,,CLR,0.00,14.00,VWS V14.01,2013-01-04 21:56:00,
2013-01-04 17:01:00,33.1,18.3,30.20,WNW,287,7.0,8.0,54,0.00,,CLR,0.00,11.00,VWS V14.01,2013-01-04 22:01:00,
2013-01-04 17:06:00,32.8,18.8,30.20,WNW,294,11.0,11.0,56,0.00,,CLR,0.00,9.00,VWS V14.01,2013-01-04 22:06:00,
2013-01-04 17:11:00,32.7,18.8,30.20,WNW,285,3.0,11.0,56,0.00,,CLR,0.00,7.00,VWS V14.01,2013-01-04 22:11:00,
2013-01-04 17:16:00,32.4,18.9,30.20,WNW,298,1.0,2.0,57,0.00,,CLR,0.00,0.00,VWS V14.01,2013-01-04 22:16:00,
2013-01-04 17:21:00,32.2,18.7,30.20,NW,320,3.0,7.0,57,0.00,,CLR,0.00,0.00,VWS V14.01,2013-01-04 22:21:00,
2013-01-04 17:26:00,32.1,19.0,30.20,NW,319,1.0,7.0,58,0.00,,CLR,0.00,0.00,VWS V14.01,2013-01-04 22:26:00,
2013-01-04 17:31:00,31.8,18.7,30.20,NW,326,1.0,7.0,58,0.00,,CLR,0.00,0.00,VWS V14.01,2013-01-04 22:31:00,
2013-01-04 17:37:00,31.7,18.6,30.21,NNW,333,2.0,3.0,58,0.00,,CLR,0.00,0.00,VWS V14.01,2013-01-04 22:37:00,
2013-01-04 17:42:00,31.7,18.6,30.21,NNE,25,0.0,5.0,58,0.00,,CLR,0.00,0.00,VWS V14.01,2013-01-04 22:42:00,
2013-01-04 17:47:00,31.4,18.4,30.21,WNW,299,0.0,3.0,58,0.00,,CLR,0.00,0.00,VWS V14.01,2013-01-04 22:47:00,
2013-01-04 17:52:00,31.2,18.2,30.21,WSW,248,1.0,5.0,58,0.00,,CLR,0.00,0.00,VWS V14.01,2013-01-04 22:52:00,
2013-01-04 17:57:00,31.2,18.2,30.21,West,265,2.0,4.0,58,0.00,,CLR,0.00,0.00,VWS V14.01,2013-01-04 22:57:00,
2013-01-04 18:02:00,31.2,18.2,30.21,NNW,332,6.0,8.0,58,0.00,,CLR,0.00,0.00,VWS V14.01,2013-01-04 23:02:00,
2013-01-04 18:07:00,31.4,17.9,30.21,WNW,295,6.0,7.0,57,0.00,,CLR,0.00,0.00,VWS V14.01,2013-01-04 23:07:00,
2013-01-04 18:12:00,31.4,17.9,30.21,NNW,337,0.0,8.0,57,0.00,,CLR,0.00,0.00,VWS V14.01,2013-01-04 23:12:00,
2013-01-04 18:18:00,31.4,18.4,30.21,WNW,282,5.0,6.0,58,0.00,,CLR,0.00,0.00,VWS V14.01,2013-01-04 23:18:00,
2013-01-04 18:23:00,31.2,18.5,30.21,NNW,329,1.0,8.0,59,0.00,,CLR,0.00,0.00,VWS V14.01,2013-01-04 23:23:00,
2013-01-04 18:28:00,31.1,18.5,30.21,NNW,332,0.0,0.0,59,0.00,,CLR,0.00,0.00,VWS V14.01,2013-01-04 23:28:00,
2013-01-04 18:33:00,31.2,18.2,30.21,NW,325,0.0,8.0,58,0.00,,CLR,0.00,0.00,VWS V14.01,2013-01-04 23:33:00,
2013-01-04 18:38:00,31.4,18.4,30.22,WNW,288,2.0,6.0,58,0.00,,CLR,0.00,0.00,VWS V14.01,2013-01-04 23:38:00,
2013-01-04 18:43:00,31.4,18.4,30.22,NW,316,0.0,7.0,58,0.00,,CLR,0.00,0.00,VWS V14.01,2013-01-04 23:43:00,
2013-01-04 18:48:00,31.5,18.4,30.22,NNW,335,0.0,8.0,58,0.00,,CLR,0.00,0.00,VWS V14.01,2013-01-04 23:48:00,
2013-01-04 18:53:00,31.5,18.4,30.23,NW,308,4.0,8.0,58,0.00,,CLR,0.00,0.00,VWS V14.01,2013-01-04 23:53:00,
2013-01-04 18:59:00,31.4,18.4,30.23,NW,305,1.0,6.0,58,0.00,,CLR,0.00,0.00,VWS V14.01,2013-01-04 23:59:00,
2013-01-04 19:04:00,31.2,18.2,30.23,NNW,343,3.0,6.0,58,0.00,,CLR,0.00,0.00,VWS V14.01,2013-01-05 00:04:00,
2013-01-04 19:09:00,31.1,18.1,30.22,North,0,1.0,5.0,58,0.00,,CLR,0.00,0.00,VWS V14.01,2013-01-05 00:09:00,
2013-01-04 19:14:00,30.9,18.3,30.22,North,349,0.0,6.0,59,0.00,,CLR,0.00,0.00,VWS V14.01,2013-01-05 00:14:00,
2013-01-04 19:19:00,30.8,18.2,30.24,North,352,0.0,2.0,59,0.00,,CLR,0.00,0.00,VWS V14.01,2013-01-05 00:19:00,
2013-01-04 19:24:00,30.6,18.0,30.24,North,352,0.0,3.0,59,0.00,,CLR,0.00,0.00,VWS V14.01,2013-01-05 00:24:00,
2013-01-04 19:29:00,30.5,17.9,30.24,North,0,0.0,1.0,59,0.00,,CLR,0.00,0.00,VWS V14.01,2013-01-05 00:29:00,
2013-01-04 19:34:00,30.3,17.7,30.24,North,0,0.0,1.0,59,0.00,,CLR,0.00,0.00,VWS V14.01,2013-01-05 00:34:00,
2013-01-04 19:39:00,30.2,18.0,30.24,North,0,0.0,0.0,60,0.00,,CLR,0.00,0.00,VWS V14.01,2013-01-05 00:39:00,
2013-01-04 19:44:00,29.9,17.7,30.24,NNW,343,0.0,2.0,60,0.00,,CLR,0.00,0.00,VWS V14.01,2013-01-05 00:44:00,
2013-01-04 19:50:00,29.6,17.8,30.24,NNW,343,1.0,1.0,61,0.00,,CLR,0.00,0.00,VWS V14.01,2013-01-05 00:50:00,
2013-01-04 19:55:00,29.6,17.8,30.24,NNW,343,0.0,2.0,61,0.00,,CLR,0.00,0.00,VWS V14.01,2013-01-05 00:55:00,
2013-01-04 20:00:00,29.6,17.8,30.24,NNW,330,1.0,4.0,61,0.00,,CLR,0.00,0.00,VWS V14.01,2013-01-05 01:00:00,
2013-01-04 20:05:00,29.7,17.5,30.23,NNW,328,0.0,0.0,60,0.00,,CLR,0.00,0.00,VWS V14.01,2013-01-05 01:05:00,
2013-01-04 20:10:00,29.7,17.9,30.23,NW,323,1.0,4.0,61,0.00,,CLR,0.00,0.00,VWS V14.01,2013-01-05 01:10:00,
2013-01-04 20:15:00,29.7,17.9,30.23,NW,323,0.0,0.0,61,0.00,,CLR,0.00,0.00,VWS V14.01,2013-01-05 01:15:00,
2013-01-04 20:20:00,29.7,17.9,30.23,NW,312,0.0,2.0,61,0.00,,CLR,0.00,0.00,VWS V14.01,2013-01-05 01:20:00,
2013-01-04 20:26:00,29.6,18.2,30.23,NNE,32,0.0,0.0,62,0.00,,CLR,0.00,0.00,VWS V14.01,2013-01-05 01:26:00,
2013-01-04 20:31:00,29.6,18.2,30.23,North,0,0.0,0.0,62,0.00,,CLR,0.00,0.00,VWS V14.01,2013-01-05 01:31:00,
2013-01-04 20:36:00,29.6,18.2,30.24,WNW,282,1.0,2.0,62,0.00,,CLR,0.00,0.00,VWS V14.01,2013-01-05 01:36:00,
2013-01-04 20:41:00,29.9,18.5,30.24,West,278,2.0,6.0,62,0.00,,CLR,0.00,0.00,VWS V14.01,2013-01-05 01:41:00,
2013-01-04 20:46:00,30.3,18.5,30.24,West,270,1.0,6.0,61,0.00,,CLR,0.00,0.00,VWS V14.01,2013-01-05 01:46:00,
2013-01-04 20:51:00,30.8,18.6,30.23,WNW,294,1.0,7.0,60,0.00,,CLR,0.00,0.00,VWS V14.01,2013-01-05 01:51:00,
2013-01-04 20:56:00,31.1,18.9,30.23,WNW,285,1.0,5.0,60,0.00,,CLR,0.00,0.00,VWS V14.01,2013-01-05 01:56:00,
2013-01-04 21:01:00,31.4,19.1,30.23,WSW,239,6.0,8.0,60,0.00,,CLR,0.00,0.00,VWS V14.01,2013-01-05 02:01:00,
2013-01-04 21:07:00,31.7,19.0,30.24,WSW,250,3.0,3.0,59,0.00,,CLR,0.00,0.00,VWS V14.01,2013-01-05 02:07:00,
2013-01-04 21:12:00,31.8,18.7,30.24,WSW,250,3.0,7.0,58,0.00,,CLR,0.00,0.00,VWS V14.01,2013-01-05 02:12:00,
2013-01-04 21:17:00,31.9,18.8,30.24,WSW,254,0.0,4.0,58,0.00,,CLR,0.00,0.00,VWS V14.01,2013-01-05 02:17:00,
2013-01-04 21:22:00,31.8,18.7,30.23,WSW,256,2.0,4.0,58,0.00,,CLR,0.00,0.00,VWS V14.01,2013-01-05 02:22:00,
2013-01-04 21:27:00,31.7,19.0,30.23,WSW,253,2.0,3.0,59,0.00,,CLR,0.00,0.00,VWS V14.01,2013-01-05 02:27:00,
2013-01-04 21:32:00,31.4,18.7,30.23,West,265,0.0,6.0,59,0.00,,CLR,0.00,0.00,VWS V14.01,2013-01-05 02:32:00,
2013-01-04 21:37:00,31.1,18.9,30.23,West,265,0.0,0.0,60,0.00,,CLR,0.00,0.00,VWS V14.01,2013-01-05 02:37:00,
2013-01-04 21:42:00,30.9,18.7,30.23,West,268,0.0,3.0,60,0.00,,CLR,0.00,0.00,VWS V14.01,2013-01-05 02:42:00,
2013-01-04 21:47:00,30.9,18.3,30.23,West,268,0.0,0.0,59,0.00,,CLR,0.00,0.00,VWS V14.01,2013-01-05 02:47:00,
2013-01-04 21:52:00,31.1,18.5,30.23,West,268,0.0,0.0,59,0.00,,CLR,0.00,0.00,VWS V14.01,2013-01-05 02:52:00,
2013-01-04 21:58:00,30.9,18.3,30.23,West,268,0.0,0.0,59,0.00,,CLR,0.00,0.00,VWS V14.01,2013-01-05 02:58:00,
2013-01-04 22:03:00,30.9,18.7,30.23,West,268,0.0,1.0,60,0.00,,CLR,0.00,0.00,VWS V14.01,2013-01-05 03:03:00,
2013-01-04 22:08:00,31.1,18.5,30.24,West,264,0.0,5.0,59,0.00,,CLR,0.00,0.00,VWS V14.01,2013-01-05 03:08:00,
2013-01-04 22:13:00,30.9,18.7,30.24,NW,323,0.0,5.0,60,0.00,,CLR,0.00,0.00,VWS V14.01,2013-01-05 03:13:00,
2013-01-04 22:18:00,30.9,18.7,30.24,WSW,256,2.0,3.0,60,0.00,,CLR,0.00,0.00,VWS V14.01,2013-01-05 03:18:00,
2013-01-04 22:23:00,31.1,18.9,30.23,West,260,1.0,5.0,60,0.00,,CLR,0.00,0.00,VWS V14.01,2013-01-05 03:23:00,
2013-01-04 22:28:00,31.2,18.2,30.23,WSW,256,0.0,3.0,58,0.00,,CLR,0.00,0.00,VWS V14.01,2013-01-05 03:28:00,
2013-01-04 22:33:00,31.2,18.2,30.23,West,267,1.0,3.0,58,0.00,,CLR,0.00,0.00,VWS V14.01,2013-01-05 03:33:00,
2013-01-04 22:38:00,31.4,18.4,30.24,West,263,2.0,3.0,58,0.00,,CLR,0.00,0.00,VWS V14.01,2013-01-05 03:38:00,
2013-01-04 22:44:00,31.4,18.4,30.24,West,261,0.0,3.0,58,0.00,,CLR,0.00,0.00,VWS V14.01,2013-01-05 03:44:00,
2013-01-04 22:49:00,31.2,18.2,30.24,West,261,0.0,0.0,58,0.00,,CLR,0.00,0.00,VWS V14.01,2013-01-05 03:49:00,
2013-01-04 22:54:00,31.2,18.2,30.25,South,185,0.0,0.0,58,0.00,,CLR,0.00,0.00,VWS V14.01,2013-01-05 03:54:00,
2013-01-04 22:55:00,31.1,18.5,30.24,NW,322,0.0,5.0,59,0.00,,CLR,0.00,0.00,VWS V14.01,2013-01-05 03:55:00,
2013-01-04 22:56:00,31.1,18.5,30.24,NNW,329,1.0,5.0,59,0.00,,CLR,0.00,0.00,VWS V14.01,2013-01-05 03:56:00,
2013-01-04 22:57:00,31.1,18.5,30.24,NNW,329,2.0,5.0,59,0.00,,CLR,0.00,0.00,VWS V14.01,2013-01-05 03:57:00,
2013-01-04 22:58:00,31.1,18.5,30.24,NNW,330,1.0,5.0,59,0.00,,CLR,0.00,0.00,VWS V14.01,2013-01-05 03:58:00,
2013-01-04 22:59:00,31.1,18.1,30.25,South,185,0.0,0.0,58,0.00,,CLR,0.00,0.00,VWS V14.01,2013-01-05 03:59:00,
2013-01-04 23:00:00,31.1,18.5,30.24,NNW,330,0.0,5.0,59,0.00,,CLR,0.00,0.00,VWS V14.01,2013-01-05 04:00:00,
2013-01-04 23:01:00,31.1,18.5,30.24,NNW,339,0.0,3.0,59,0.00,,CLR,0.00,0.00,VWS V14.01,2013-01-05 04:01:00,
2013-01-04 23:02:00,31.1,18.5,30.24,NNW,339,1.0,3.0,59,0.00,,CLR,0.00,0.00,VWS V14.01,2013-01-05 04:02:00,
2013-01-04 23:03:00,31.1,18.5,30.24,North,352,1.0,3.0,59,0.00,,CLR,0.00,0.00,VWS V14.01,2013-01-05 04:03:00,
2013-01-04 23:04:00,30.9,18.3,30.24,NW,315,0.0,3.0,59,0.00,,CLR,0.00,0.00,VWS V14.01,2013-01-05 04:04:00,
2013-01-04 23:05:00,31.1,18.9,30.24,NNW,332,3.0,6.0,60,0.00,,CLR,0.00,0.00,VWS V14.01,2013-01-05 04:05:00,
2013-01-04 23:06:00,31.1,18.9,30.24,North,3,1.0,6.0,60,0.00,,CLR,0.00,0.00,VWS V14.01,2013-01-05 04:06:00,
2013-01-04 23:07:00,31.1,18.9,30.24,NNW,347,0.0,6.0,60,0.00,,CLR,0.00,0.00,VWS V14.01,2013-01-05 04:07:00,
2013-01-04 23:08:00,31.1,18.5,30.24,NNW,328,0.0,6.0,59,0.00,,CLR,0.00,0.00,VWS V14.01,2013-01-05 04:08:00,
2013-01-04 23:09:00,30.8,18.2,30.24,NNW,337,1.0,2.0,59,0.00,,CLR,0.00,0.00,VWS V14.01,2013-01-05 04:09:00,
2013-01-04 23:10:00,31.1,18.5,30.24,NNW,332,1.0,6.0,59,0.00,,CLR,0.00,0.00,VWS V14.01,2013-01-05 04:10:00,
2013-01-04 23:11:00,31.1,18.5,30.24,NNW,332,0.0,2.0,59,0.00,,CLR,0.00,0.00,VWS V14.01,2013-01-05 04:11:00,
2013-01-04 23:12:00,31.1,18.5,30.24,NW,315,1.0,3.0,59,0.00,,CLR,0.00,0.00,VWS V14.01,2013-01-05 04:12:00,
2013-01-04 23:13:00,31.1,18.5,30.24,NW,319,0.0,3.0,59,0.00,,CLR,0.00,0.00,VWS V14.01,2013-01-05 04:13:00,
2013-01-04 23:14:00,30.8,18.2,30.24,NNW,336,0.0,2.0,59,0.00,,CLR,0.00,0.00,VWS V14.01,2013-01-05 04:14:00,
2013-01-04 23:16:00,31.1,18.5,30.23,NW,319,0.0,3.0,59,0.00,,CLR,0.00,0.00,VWS V14.01,2013-01-05 04:16:00,
2013-01-04 23:17:00,31.1,18.5,30.23,NW,319,0.0,3.0,59,0.00,,CLR,0.00,0.00,VWS V14.01,2013-01-05 04:17:00,
2013-01-04 23:18:00,30.9,18.3,30.23,NW,319,0.0,3.0,59,0.00,,CLR,0.00,0.00,VWS V14.01,2013-01-05 04:18:00,
2013-01-04 23:19:00,30.6,18.0,30.24,WNW,284,0.0,2.0,59,0.00,,CLR,0.00,0.00,VWS V14.01,2013-01-05 04:19:00,
2013-01-04 23:24:00,30.6,18.4,30.24,North,0,0.0,3.0,60,0.00,,CLR,0.00,0.00,VWS V14.01,2013-01-05 04:24:00,
2013-01-04 23:29:00,30.9,18.7,30.24,NW,313,0.0,6.0,60,0.00,,CLR,0.00,0.00,VWS V14.01,2013-01-05 04:29:00,
2013-01-04 23:35:00,30.8,18.6,30.24,NNW,342,1.0,6.0,60,0.00,,CLR,0.00,0.00,VWS V14.01,2013-01-05 04:35:00,
2013-01-04 23:40:00,30.8,18.6,30.24,NNE,27,0.0,1.0,60,0.00,,CLR,0.00,0.00,VWS V14.01,2013-01-05 04:40:00,
2013-01-04 23:45:00,30.8,18.6,30.24,NNW,343,0.0,3.0,60,0.00,,CLR,0.00,0.00,VWS V14.01,2013-01-05 04:45:00,
2013-01-04 23:50:00,30.6,18.4,30.24,NW,323,3.0,3.0,60,0.00,,CLR,0.00,0.00,VWS V14.01,2013-01-05 04:50:00,
2013-01-04 23:55:00,30.8,18.6,30.24,North,354,1.0,2.0,60,0.00,,CLR,0.00,0.00,VWS V14.01,2013-01-05 04:55:00,